timestamp,surface_pressure_avg,surface_temp_avg,battery_voltage,lat,long
2019-07-01 00:00:00+00:00,318.973,16.94,13.05,47.84626,-54.09684
2019-07-01 00:10:00+00:00,311.8347,17.0,12.97,47.84626,-54.09684
2019-07-01 00:20:00+00:00,310.1463,17.15,12.97,47.84626,-54.09684
2019-07-01 00:30:00+00:00,303.6464,17.29,12.97,47.84626,-54.09684
2019-07-01 00:40:00+00:00,293.4747,17.4,12.97,47.84626,-54.09684
2019-07-01 00:50:00+00:00,286.3748,17.46,12.97,47.84626,-54.09684
2019-07-01 01:00:00+00:00,280.2581,17.4,12.97,47.84626,-54.09684
2019-07-01 01:10:00+00:00,268.9014,17.39,12.89,47.84626,-54.09684
2019-07-01 01:20:00+00:00,258.9198,17.6,12.97,47.84626,-54.09684
2019-07-01 01:30:00+00:00,254.1581,17.6,12.97,47.84626,-54.09684
2019-07-01 01:40:00+00:00,248.5098,17.6,12.97,47.84626,-54.09684
2019-07-01 01:50:00+00:00,241.6364,17.66,12.97,47.84626,-54.09684
2019-07-01 02:00:00+00:00,235.4197,17.69,12.89,47.84626,-54.09684
2019-07-01 02:10:00+00:00,229.8231,17.69,12.81,47.84626,-54.09684
2019-07-01 02:20:00+00:00,224.9481,17.69,12.89,47.84626,-54.09684
2019-07-01 02:30:00+00:00,222.4782,17.61,12.89,47.84626,-54.09684
2019-07-01 02:40:00+00:00,219.7864,17.6,12.97,47.84626,-54.09684
2019-07-01 02:50:00+00:00,211.6798,17.6,12.97,47.84626,-54.09684
2019-07-01 03:00:00+00:00,204.7615,17.6,12.89,47.84626,-54.09684
2019-07-01 03:10:00+00:00,204.238,17.6,12.81,47.84626,-54.09684
2019-07-01 03:20:00+00:00,204.0498,17.6,12.89,47.84626,-54.09684
2019-07-01 03:30:00+00:00,199.4031,17.6,12.89,47.84626,-54.09684
2019-07-01 03:40:00+00:00,196.7397,17.6,12.89,47.84626,-54.09684
2019-07-01 03:50:00+00:00,196.7981,17.6,12.89,47.84626,-54.09684
2019-07-01 04:00:00+00:00,196.9615,17.6,12.81,47.84626,-54.09684
2019-07-01 04:10:00+00:00,196.2164,17.59,12.81,47.84626,-54.09684
2019-07-01 04:20:00+00:00,195.8765,17.58,12.89,47.84626,-54.09684
2019-07-01 04:30:00+00:00,197.7298,17.5,12.89,47.84626,-54.09684
2019-07-01 04:40:00+00:00,197.7298,17.42,12.89,47.84626,-54.09684
2019-07-01 04:50:00+00:00,193.6097,17.5,12.89,47.84626,-54.09684
2019-07-01 05:00:00+00:00,194.7814,17.5,12.81,47.84626,-54.09684
2019-07-01 05:10:00+00:00,201.5348,16.86,12.73,47.84626,-54.09684
2019-07-01 05:20:00+00:00,203.6064,14.98,12.81,47.84626,-54.09684
2019-07-01 05:30:00+00:00,202.5565,15.36,12.89,47.84626,-54.09684
2019-07-01 05:40:00+00:00,204.7481,15.67,12.89,47.84626,-54.09684
2019-07-01 05:50:00+00:00,209.1198,16.52,12.89,47.84626,-54.09684
2019-07-01 06:00:00+00:00,212.4414,16.16,12.81,47.84626,-54.09684
2019-07-01 06:10:00+00:00,216.1598,15.53,12.73,47.84626,-54.09684
2019-07-01 06:20:00+00:00,222.1531,14.96,12.81,47.84626,-54.09684
2019-07-01 06:30:00+00:00,226.6031,14.79,12.81,47.84626,-54.09684
2019-07-01 06:40:00+00:00,229.5714,14.25,12.81,47.84626,-54.09684
2019-07-01 06:50:00+00:00,233.1563,13.8,12.89,47.84626,-54.09684
2019-07-01 07:00:00+00:00,236.9048,14.35,12.81,47.84626,-54.09684
2019-07-01 07:10:00+00:00,244.2081,14.14,12.73,47.84626,-54.09684
2019-07-01 07:20:00+00:00,253.0531,13.28,12.81,47.84626,-54.09684
2019-07-01 07:30:00+00:00,260.6381,12.84,12.81,47.84626,-54.09684
2019-07-01 07:40:00+00:00,265.8047,12.14,12.81,47.84626,-54.09684
2019-07-01 07:50:00+00:00,272.4548,11.48,12.81,47.84626,-54.09684
2019-07-01 08:00:00+00:00,278.4597,11.32,12.73,47.84626,-54.09684
2019-07-01 08:10:00+00:00,283.7414,11.1,12.73,47.84626,-54.09684
2019-07-01 08:20:00+00:00,291.5247,11.0,12.81,47.84626,-54.09684
2019-07-01 08:30:00+00:00,301.1263,10.53,12.81,47.84626,-54.09684
2019-07-01 08:40:00+00:00,306.8448,9.43,12.81,47.84626,-54.09684
2019-07-01 08:50:00+00:00,306.8363,9.2,12.89,47.84626,-54.09684
2019-07-01 09:00:00+00:00,311.8763,9.1,12.81,47.84626,-54.09684
2019-07-01 09:10:00+00:00,320.5663,9.0,12.81,47.84626,-54.09684
2019-07-01 09:20:00+00:00,322.5063,8.9,12.89,47.84626,-54.09684
2019-07-01 09:30:00+00:00,322.3396,8.8,12.89,47.84626,-54.09684
2019-07-01 09:40:00+00:00,326.3663,8.85,12.89,47.84626,-54.09684
2019-07-01 09:50:00+00:00,330.1262,8.9,12.97,47.84626,-54.09684
2019-07-01 10:00:00+00:00,324.6396,8.8,12.89,47.84626,-54.09684
2019-07-01 10:10:00+00:00,325.9246,8.72,12.81,47.84626,-54.09684
2019-07-01 10:20:00+00:00,331.4596,8.7,12.89,47.84626,-54.09684
2019-07-01 10:30:00+00:00,334.3663,8.5,12.97,47.84626,-54.09684
2019-07-01 10:40:00+00:00,326.833,8.52,13.05,47.84626,-54.09684
2019-07-01 10:50:00+00:00,324.1445,8.6,13.13,47.84626,-54.09684
2019-07-01 11:00:00+00:00,323.718,8.7,13.05,47.84626,-54.09684
2019-07-01 11:10:00+00:00,320.3313,8.8,13.05,47.84626,-54.09684
2019-07-01 11:20:00+00:00,315.8063,8.6,13.37,47.84626,-54.09684
2019-07-01 11:30:00+00:00,322.6031,8.6,13.76,47.84626,-54.09684
2019-07-01 11:40:00+00:00,320.488,8.6,13.84,47.84626,-54.09684
2019-07-01 11:50:00+00:00,309.7297,8.75,13.84,47.84626,-54.09684
2019-07-01 12:00:00+00:00,304.6729,8.8,13.84,47.84626,-54.09684
2019-07-01 12:10:00+00:00,308.7996,8.88,13.84,47.84626,-54.09684
2019-07-01 12:20:00+00:00,303.1947,8.89,13.84,47.84626,-54.09684
2019-07-01 12:30:00+00:00,292.5697,9.18,13.92,47.84626,-54.09684
2019-07-01 12:40:00+00:00,286.4814,9.2,13.92,47.84626,-54.09684
2019-07-01 12:50:00+00:00,283.5831,9.3,13.84,47.84626,-54.09684
2019-07-01 13:00:00+00:00,271.0014,9.41,13.76,47.84626,-54.09684
2019-07-01 13:10:00+00:00,257.5181,9.6,13.6,47.84626,-54.09684
2019-07-01 13:20:00+00:00,256.8714,9.5,13.68,47.84626,-54.09684
2019-07-01 13:30:00+00:00,255.8414,9.82,13.68,47.84626,-54.09684
2019-07-01 13:40:00+00:00,244.8814,10.92,13.76,47.84626,-54.09684
2019-07-01 13:50:00+00:00,235.1964,11.45,13.76,47.84626,-54.09684
2019-07-01 14:00:00+00:00,233.7064,11.53,13.76,47.84626,-54.09684
2019-07-01 14:10:00+00:00,225.6615,11.69,13.68,47.84626,-54.09684
2019-07-01 14:20:00+00:00,214.3814,12.35,13.92,47.84626,-54.09684
2019-07-01 14:30:00+00:00,210.0898,12.34,14.08,47.84626,-54.09684
2019-07-01 14:40:00+00:00,205.2198,13.82,14.24,47.84626,-54.09684
2019-07-01 14:50:00+00:00,199.5198,13.83,14.24,47.84626,-54.09684
2019-07-01 15:00:00+00:00,198.8115,13.91,14.16,47.84626,-54.09684
2019-07-01 15:10:00+00:00,198.7131,14.39,14.08,47.84626,-54.09684
2019-07-01 15:20:00+00:00,195.0998,14.57,14.16,47.84626,-54.09684
2019-07-01 15:30:00+00:00,194.5697,16.04,14.24,47.84626,-54.09684
2019-07-01 15:40:00+00:00,195.1865,16.2,14.24,47.84626,-54.09684
2019-07-01 15:50:00+00:00,191.0232,16.17,14.24,47.84626,-54.09684
2019-07-01 16:00:00+00:00,189.3348,14.16,14.16,47.84626,-54.09684
2019-07-01 16:10:00+00:00,193.8532,14.04,14.0,47.84626,-54.09684
2019-07-01 16:20:00+00:00,192.4532,15.83,14.08,47.84626,-54.09684
2019-07-01 16:30:00+00:00,188.1464,14.4,14.16,47.84626,-54.09684
2019-07-01 16:40:00+00:00,188.6182,13.95,14.16,47.84626,-54.09684
2019-07-01 16:50:00+00:00,193.2465,13.87,14.08,47.84626,-54.09684
2019-07-01 17:00:00+00:00,194.4815,14.69,14.0,47.84626,-54.09684
2019-07-01 17:10:00+00:00,194.2347,15.4,13.84,47.84626,-54.09684
2019-07-01 17:20:00+00:00,201.8365,13.63,13.92,47.84626,-54.09684
2019-07-01 17:30:00+00:00,207.1031,13.35,13.92,47.84626,-54.09684
2019-07-01 17:40:00+00:00,209.7014,13.4,14.0,47.84626,-54.09684
2019-07-01 17:50:00+00:00,216.1581,13.4,14.0,47.84626,-54.09684
2019-07-01 18:00:00+00:00,221.8248,13.3,13.92,47.84626,-54.09684
2019-07-01 18:10:00+00:00,222.1447,13.3,13.76,47.84626,-54.09684
2019-07-01 18:20:00+00:00,222.0648,13.3,13.84,47.84626,-54.09684
2019-07-01 18:30:00+00:00,228.1464,13.2,13.76,47.84626,-54.09684
2019-07-01 18:40:00+00:00,237.7215,13.1,13.76,47.84626,-54.09684
2019-07-01 18:50:00+00:00,242.4064,13.1,13.84,47.84626,-54.09684
2019-07-01 19:00:00+00:00,245.7948,13.46,13.68,47.84626,-54.09684
2019-07-01 19:10:00+00:00,254.7197,11.41,13.6,47.84626,-54.09684
2019-07-01 19:20:00+00:00,265.0865,11.91,13.53,47.84626,-54.09684
2019-07-01 19:30:00+00:00,269.743,12.42,13.53,47.84626,-54.09684
2019-07-01 19:40:00+00:00,275.918,13.3,13.53,47.84626,-54.09684
2019-07-01 19:50:00+00:00,287.5714,11.96,13.53,47.84626,-54.09684
2019-07-01 20:00:00+00:00,296.7814,12.1,13.37,47.84626,-54.09684
2019-07-01 20:10:00+00:00,301.7581,12.2,13.29,47.84626,-54.09684
2019-07-01 20:20:00+00:00,307.3431,12.2,13.29,47.84626,-54.09684
2019-07-01 20:30:00+00:00,318.7546,11.91,13.29,47.84626,-54.09684
2019-07-01 20:40:00+00:00,325.1229,11.93,13.21,47.84626,-54.09684
2019-07-01 20:50:00+00:00,326.3881,12.06,13.21,47.84626,-54.09684
2019-07-01 21:00:00+00:00,330.8513,12.1,13.13,47.84626,-54.09684
2019-07-01 21:10:00+00:00,341.6763,11.96,13.05,47.84626,-54.09684
2019-07-01 21:20:00+00:00,345.608,11.74,13.05,47.84626,-54.09684
2019-07-01 21:30:00+00:00,346.103,11.2,13.05,47.84626,-54.09684
2019-07-01 21:40:00+00:00,354.533,11.27,13.05,47.84626,-54.09684
2019-07-01 21:50:00+00:00,363.8212,11.29,13.05,47.84626,-54.09684
2019-07-01 22:00:00+00:00,363.2897,11.28,12.97,47.84626,-54.09684
2019-07-01 22:10:00+00:00,362.5197,11.1,12.89,47.84626,-54.09684
2019-07-01 22:20:00+00:00,367.0878,10.89,12.97,47.84626,-54.09684
2019-07-01 22:30:00+00:00,370.7763,10.8,12.97,47.84626,-54.09684
2019-07-01 22:40:00+00:00,364.7412,10.85,12.97,47.84626,-54.09684
2019-07-01 22:50:00+00:00,364.6962,10.8,12.97,47.84626,-54.09684
2019-07-01 23:00:00+00:00,367.3862,10.6,12.89,47.84626,-54.09684
2019-07-01 23:10:00+00:00,366.2462,10.3,12.81,47.84626,-54.09684
2019-07-01 23:20:00+00:00,364.0229,10.0,12.89,47.84626,-54.09684
2019-07-01 23:30:00+00:00,359.4747,9.9,12.89,47.84626,-54.09684
2019-07-01 23:40:00+00:00,359.7295,9.89,12.97,47.84626,-54.09684
2019-07-01 23:50:00+00:00,358.2145,9.87,12.97,47.84626,-54.09684
